Terminal Aerodrome Forecast
Issued by NWS

Home | Current Version | Previous Version | Text Only | Print | Product List | Glossary On
Versions: 1 2 3 4 5 6 7 8 9 10 11 12 13 14 15 16 17 18 19 20 21 22 23 24 25 26 27 28 29 30 31 32 33 34 35 36 37 38 39 40 41 42 43 44 45 46 47 48 49 50
000
FTAK31 PANC 250520
TAFADL
TAF
PADL 250520Z 2506/2606 18005KT P6SM VCSH SCT025 OVC040
      TEMPO 2506/2510 -SHRA BKN025
     FM251800 16008KT P6SM BKN025 BKN080
     FM260200 19008KT P6SM SCT040 SCT080
      AMD LTD TO CLD VIS AND WIND 2507/2516=

USA.gov is the U.S. government's official web portal to all federal, state and local government web resources and services.